This is the latest recevied weather packets stored in our database for station/object VE6HFD-WX. If no packets are shown the sender has not sent any weather packets the latest 10 day(s).
| Time | Temp. | Humidity | Pressure | Rain* | Wind** | Luminosity | Snow |
|---|---|---|---|---|---|---|---|
| 1777569789 | 15° C | 33% | 1019.6 hPa | 0 mm | - | - | - |
| 1777569489 | 15° C | 34% | 1019.6 hPa | 0 mm | - | - | - |
| 1777569159 | 15° C | 34% | 1019.6 hPa | 0 mm | - | - | - |
| 1777568829 | 15° C | 36% | 1019.6 hPa | 0 mm | - | - | - |
| 1777568499 | 15° C | 37% | 1019.7 hPa | 0 mm | - | - | - |
| 1777568199 | 14.44° C | 38% | 1019.7 hPa | 0 mm | - | - | - |
| 1777567869 | 14.44° C | 38% | 1019.7 hPa | 0 mm | - | - | - |
| 1777567569 | 14.44° C | 38% | 1019.7 hPa | 0 mm | - | - | - |
| 1777567239 | 13.89° C | 39% | 1019.8 hPa | 0 mm | - | - | - |
| 1777566939 | 13.89° C | 36% | 1019.9 hPa | 0 mm | - | - | - |
| 1777566609 | 14.44° C | 37% | 1019.9 hPa | 0 mm | - | - | - |
| 1777566279 | 13.89° C | 37% | 1020 hPa | 0 mm | - | - | - |
| 1777565949 | 13.89° C | 39% | 1020 hPa | 0 mm | - | - | - |
| 1777565619 | 13.89° C | 41% | 1020 hPa | 0 mm | - | - | - |
| 1777565319 | 13.33° C | 40% | 1020.1 hPa | 0 mm | - | - | - |
| 1777565019 | 13.33° C | 41% | 1020.2 hPa | 0 mm | - | - | - |
| 1777564689 | 13.33° C | 41% | 1020.3 hPa | 0 mm | - | - | - |
| 1777564359 | 12.78° C | 43% | 1020.4 hPa | 0 mm | - | - | - |
| 1777564029 | 12.22° C | 42% | 1020.3 hPa | 0 mm | - | - | - |
| 1777563729 | 12.22° C | 43% | 1020.3 hPa | 0 mm | - | - | - |
| 1777563399 | 12.22° C | 43% | 1020.3 hPa | 0 mm | - | - | - |
| 1777563069 | 12.22° C | 42% | 1020.3 hPa | 0 mm | - | - | - |
| 1777562739 | 11.67° C | 46% | 1020.3 hPa | 0 mm | - | - | - |
| 1777562409 | 5° C | 74% | 1020.4 hPa | 0 mm | - | - | - |
| 1777561749 | 5° C | 74% | 1020.4 hPa | 0 mm | - | - | - |
* Rain latest hour (hover to see other rain measurements)
** Current wind speed in m/s (hover to see current wind gust speed)